TimePDT,TemperatureF,Dew PointF,Humidity,Sea Level PressureIn,VisibilityMPH,Wind Direction,Wind SpeedMPH,Gust SpeedMPH,PrecipitationIn,Events,Conditions,WindDirDegrees,DateUTC
12:53 AM,70.0,39.0,32,30.06,10.0,WNW,5.8,-,N/A,,Clear,290,2013-05-10 07:53:00
1:53 AM,66.0,41.0,40,30.06,10.0,NW,5.8,-,N/A,,Clear,310,2013-05-10 08:53:00
2:53 AM,64.0,41.0,43,30.08,10.0,West,8.1,-,N/A,,Clear,270,2013-05-10 09:53:00
3:53 AM,61.0,41.0,48,30.09,10.0,West,8.1,-,N/A,,Clear,270,2013-05-10 10:53:00
4:53 AM,55.4,42.8,63,30.11,10.0,West,5.8,-,N/A,,Clear,260,2013-05-10 11:53:00
5:53 AM,53.6,42.8,67,30.12,10.0,WSW,8.1,-,N/A,,Clear,250,2013-05-10 12:53:00
6:53 AM,61.0,41.0,48,30.11,10.0,West,8.1,-,N/A,,Clear,260,2013-05-10 13:53:00
7:53 AM,66.0,42.1,42,30.12,10.0,West,9.2,-,N/A,,Clear,260,2013-05-10 14:53:00
8:53 AM,71.1,42.1,35,30.12,10.0,West,6.9,-,N/A,,Clear,270,2013-05-10 15:53:00
9:53 AM,77.0,41.0,28,30.10,10.0,West,4.6,-,N/A,,Clear,270,2013-05-10 16:53:00
10:53 AM,82.9,39.0,21,30.10,10.0,West,4.6,-,N/A,,Clear,280,2013-05-10 17:53:00
11:53 AM,89.1,37.0,16,30.09,10.0,North,3.5,-,N/A,,Partly Cloudy,10,2013-05-10 18:53:00
12:53 PM,91.0,37.9,15,30.06,10.0,Calm,Calm,-,N/A,,Scattered Clouds,0,2013-05-10 19:53:00
1:53 PM,93.0,39.0,15,30.05,10.0,NE,6.9,-,N/A,,Clear,40,2013-05-10 20:53:00
2:53 PM,93.9,36.0,13,30.04,10.0,East,3.5,-,N/A,,Partly Cloudy,90,2013-05-10 21:53:00
3:53 PM,95.0,37.0,13,30.02,10.0,SE,6.9,-,N/A,,Partly Cloudy,140,2013-05-10 22:53:00
4:53 PM,95.0,37.0,13,30.01,10.0,South,4.6,-,N/A,,Scattered Clouds,180,2013-05-10 23:53:00
5:53 PM,93.0,39.0,15,30.01,10.0,Variable,3.5,-,N/A,,Scattered Clouds,0,2013-05-11 00:53:00
6:53 PM,91.0,39.9,17,30.00,10.0,West,4.6,-,N/A,,Scattered Clouds,280,2013-05-11 01:53:00
7:53 PM,82.9,48.9,31,30.01,10.0,WSW,5.8,-,N/A,,Scattered Clouds,250,2013-05-11 02:53:00
8:53 PM,78.1,48.0,35,30.03,10.0,West,6.9,-,N/A,,Clear,270,2013-05-11 03:53:00
9:53 PM,75.0,48.9,40,30.06,10.0,West,5.8,-,N/A,,Clear,270,2013-05-11 04:53:00
10:53 PM,73.9,48.0,40,30.06,10.0,Calm,Calm,-,N/A,,Clear,0,2013-05-11 05:53:00
11:53 PM,66.0,48.9,54,30.08,10.0,WSW,4.6,-,N/A,,Clear,250,2013-05-11 06:53:00